Change the Weather History Date:

Monday, February 16, 2015

  Actual Average Record
Temperature  
Mean Temperature 20 °F 41 °F  
Max Temperature 25 °F 51 °F 79 °F (1927)
Min Temperature 15 °F 31 °F 4 °F (1903)
Degree Days  
Heating Degree Days 45 24  
Month to date heating degree days 436 414  
Since 1 July heating degree days 2912 2900  
Cooling Degree Days 0 0  
Month to date cooling degree days 0 0  
Year to date cooling degree days 0 0  
Moisture  
Dew Point 14 °F    
Average Humidity 77    
Maximum Humidity 92    
Minimum Humidity 62    
Precipitation  
Precipitation 0.53 in 0.09 in 1.28 in (1911)
Month to date precipitation 0.99 1.44  
Year to date precipitation 2.81 4.00  
Snow  
Snow 0.00 in 0.10 in 8.00 in (1952)
Month to date snowfall 0.2 2.0  
Since 1 July snowfall 0.8 8.0  
Snow Depth 0.00 in    
Sea Level Pressure  
Sea Level Pressure 30.07 in    
Wind  
Wind Speed 8 mph (NNE)    
Max Wind Speed 14 mph    
Max Gust Speed 19 mph    
Visibility 4 miles    
Events Fog , Rain , Snow    
T = Trace of Precipitation, MM = Missing Value Source: NWS Daily Summary

Daily Weather History Graph

Daily Weather History Graph

Search for Another Location

Airport or City:

Trip Planner

Search our weather history database for the weather conditions in past years. The results will help you decide how hot, cold, wet, or windy it might be!

Date:

Astronomy

Feb. 16, 2015 Rise Set
Actual Time 6:59 AM CST 5:54 PM CST
Civil Twilight 6:33 AM CST 6:20 PM CST
Nautical Twilight 6:02 AM CST 6:50 PM CST
Astronomical Twilight 5:33 AM CST 7:20 PM CST
Moon 4:51 AM CST (2/16) 3:36 PM CST (2/16)
Length of Visible Light 11h 47m
Length of Day
10h 55m
Waning Crescent, 7% of the Moon is Illuminated
Feb 16
Waning Crescent
Feb 18
New
Feb 25
First Quarter
Mar 5
Full
Mar 13
Last Quarter

Hourly Weather History & Observations

Time (CST) Temp. Windchill Dew Point Humidity Pressure Visibility Wind Dir Wind Speed Gust Speed Precip Events Conditions
12:17 AM 18.0 °F 6.9 °F 16.0 °F 92% 30.10 in 2.5 mi East 9.2 mph - 0.04 in Rain Light Freezing Rain
12:29 AM 17.6 °F 8.2 °F 15.8 °F 93% 30.08 in 1.5 mi East 6.9 mph - N/A Rain Light Freezing Rain
12:38 AM 18.0 °F 7.7 °F 16.0 °F 92% 30.07 in 2.0 mi ESE 8.1 mph - 0.08 in Rain Light Freezing Rain
12:42 AM 18.0 °F 6.9 °F 16.0 °F 92% 30.07 in 2.0 mi ESE 9.2 mph - 0.08 in Rain Light Freezing Rain
12:50 AM 17.6 °F 5.7 °F 17.6 °F 100% 30.07 in 2.5 mi ESE 10.4 mph - 0.09 in   Overcast
12:53 AM 18.0 °F 8.7 °F 16.0 °F 92% 30.12 in 2.0 mi ESE 6.9 mph - 0.09 in   Overcast
12:59 AM 19.0 °F 9.0 °F 16.0 °F 88% 30.08 in 2.0 mi East 8.1 mph - 0.00 in   Overcast
1:13 AM 19.0 °F 12.3 °F 17.1 °F 92% 30.08 in 1.8 mi ENE 4.6 mph - 0.01 in   Overcast
1:20 AM 18.0 °F 7.7 °F 16.0 °F 92% 30.07 in 1.2 mi ENE 8.1 mph - 0.02 in   Overcast
1:36 AM 19.0 °F 12.3 °F 17.1 °F 92% 30.08 in 1.2 mi ENE 4.6 mph - 0.04 in   Overcast
1:46 AM 19.0 °F 12.3 °F 17.1 °F 92% 30.09 in 1.5 mi East 4.6 mph - 0.05 in   Overcast
1:53 AM 19.0 °F 11.1 °F 16.0 °F 88% 30.13 in 1.2 mi NE 5.8 mph - 0.05 in   Overcast
1:57 AM 19.0 °F 8.2 °F 16.0 °F 88% 30.09 in 0.8 mi NNE 9.2 mph - 0.01 in   Overcast
2:07 AM 18.0 °F 8.7 °F 16.0 °F 92% 30.08 in 1.0 mi NNE 6.9 mph - 0.01 in Snow Light Snow
2:39 AM 18.0 °F 11.1 °F 16.0 °F 92% 30.07 in 2.5 mi NE 4.6 mph - 0.03 in   Overcast
2:53 AM 18.0 °F 6.9 °F 16.0 °F 92% 30.09 in 2.0 mi ENE 9.2 mph - 0.05 in   Overcast
2:55 AM 18.0 °F 8.7 °F 16.0 °F 92% 30.04 in 1.8 mi ENE 6.9 mph - 0.00 in   Overcast
3:07 AM 18.0 °F 6.9 °F 16.0 °F 92% 30.03 in 2.0 mi ENE 9.2 mph - 0.01 in   Overcast
3:18 AM 18.0 °F 7.7 °F 16.0 °F 92% 30.04 in 1.5 mi NNE 8.1 mph - 0.02 in   Overcast
3:26 AM 18.0 °F 7.7 °F 15.1 °F 88% 30.04 in 1.2 mi NE 8.1 mph - 0.03 in   Overcast
3:53 AM 17.1 °F 5.8 °F 15.1 °F 92% 30.09 in 1.8 mi NNE 9.2 mph - 0.06 in   Overcast
4:17 AM 17.1 °F 6.6 °F 15.1 °F 92% 30.02 in 2.0 mi ENE 8.1 mph - 0.01 in Snow Light Snow
4:25 AM 17.1 °F 7.6 °F 15.1 °F 92% 30.02 in 1.8 mi ENE 6.9 mph - 0.01 in Snow Light Snow
4:30 AM 17.1 °F 7.6 °F 15.1 °F 92% 30.03 in 2.0 mi NE 6.9 mph - 0.03 in Snow Light Snow
4:45 AM 17.1 °F 10.0 °F 15.1 °F 92% 30.04 in 1.8 mi North 4.6 mph - 0.05 in Snow Light Snow
4:53 AM 17.1 °F 7.6 °F 15.1 °F 92% 30.08 in 0.8 mi NNE 6.9 mph - 0.07 in Snow Light Snow
5:00 AM 17.1 °F 6.6 °F 15.1 °F 92% 30.03 in 0.8 mi North 8.1 mph - 0.02 in Snow Light Snow
5:33 AM 17.1 °F 10.0 °F 14.0 °F 88% 30.02 in 0.5 mi NNE 4.6 mph - 0.09 in Fog , Snow Snow
5:49 AM 17.6 °F 8.2 °F 14.0 °F 86% 30.02 in 0.8 mi NNE 6.9 mph - 0.12 in Snow Light Snow
5:53 AM 17.1 °F 10.0 °F 14.0 °F 88% 30.06 in 0.8 mi NE 4.6 mph - 0.12 in Snow Light Snow
6:02 AM 17.1 °F 8.7 °F 14.0 °F 88% 30.02 in 1.0 mi NNE 5.8 mph - 0.02 in Snow Light Snow
6:19 AM 16.0 °F 6.3 °F 14.0 °F 92% 30.02 in 1.5 mi NNE 6.9 mph - 0.03 in Snow Light Snow
6:37 AM 16.0 °F 8.8 °F 14.0 °F 92% 30.01 in 0.8 mi NNE 4.6 mph - 0.05 in Snow Light Snow
6:45 AM 16.0 °F 7.4 °F 14.0 °F 92% 30.01 in 0.5 mi NE 5.8 mph - 0.07 in Fog , Snow Snow
6:53 AM 16.0 °F 10.4 °F 14.0 °F 92% 30.06 in 0.5 mi NE 3.5 mph - 0.09 in Fog , Snow Snow
7:04 AM 16.0 °F 6.3 °F 14.0 °F 92% 30.00 in 0.8 mi NNE 6.9 mph - 0.02 in Snow Light Snow
7:11 AM 16.0 °F 7.4 °F 12.9 °F 88% 30.00 in 2.0 mi NNE 5.8 mph - 0.02 in Snow Light Snow
7:17 AM 16.0 °F 5.3 °F 12.9 °F 88% 30.01 in 3.0 mi NNE 8.1 mph - 0.02 in Snow Light Snow
7:53 AM 16.0 °F 8.8 °F 12.9 °F 88% 30.08 in 10.0 mi North 4.6 mph - 0.02 in   Overcast
8:12 AM 16.0 °F 6.3 °F 12.9 °F 88% 30.03 in 9.0 mi North 6.9 mph - N/A   Overcast
8:53 AM 16.0 °F 6.3 °F 12.9 °F 88% 30.10 in 10.0 mi NNW 6.9 mph - N/A   Overcast
9:45 AM 16.0 °F 5.3 °F 12.9 °F 88% 30.04 in 2.5 mi North 8.1 mph - 0.00 in Snow Light Snow
9:53 AM 17.1 °F 5.0 °F 12.9 °F 84% 30.10 in 3.0 mi North 10.4 mph - 0.00 in Snow Light Snow
10:27 AM 17.6 °F 6.4 °F 12.2 °F 79% 30.05 in 2.0 mi North 9.2 mph - N/A Snow Light Snow
10:42 AM 17.1 °F 5.8 °F 12.9 °F 84% 30.05 in 3.0 mi North 9.2 mph - 0.00 in Snow Light Snow
10:53 AM 17.1 °F 6.6 °F 12.0 °F 81% 30.11 in 4.0 mi North 8.1 mph - 0.00 in Snow Light Snow
11:32 AM 18.0 °F 5.4 °F 12.9 °F 81% 30.06 in 1.8 mi NNW 11.5 mph - 0.00 in Snow Light Snow
11:53 AM 18.0 °F 6.9 °F 14.0 °F 84% 30.11 in 1.8 mi NNW 9.2 mph - 0.00 in Snow Light Snow
11:56 AM 17.6 °F 5.7 °F 14.0 °F 86% 30.05 in 3.0 mi North 10.4 mph - N/A Snow Light Snow
12:33 PM 18.0 °F 6.1 °F 12.9 °F 81% 30.03 in 10.0 mi NNW 10.4 mph - 0.00 in   Overcast
12:53 PM 19.0 °F 8.2 °F 12.9 °F 77% 30.09 in 10.0 mi NNW 9.2 mph - 0.00 in   Overcast
1:53 PM 21.0 °F 8.6 °F 12.9 °F 71% 30.06 in 10.0 mi North 12.7 mph - N/A   Overcast
2:29 PM 23.0 °F 11.7 °F 12.9 °F 65% 30.00 in 10.0 mi NNW 11.5 mph - N/A   Scattered Clouds
2:53 PM 23.0 °F 12.4 °F 14.0 °F 68% 30.06 in 10.0 mi NW 10.4 mph - N/A   Partly Cloudy
3:53 PM 25.0 °F 14.8 °F 14.0 °F 63% 30.07 in 10.0 mi NNW 10.4 mph - N/A   Clear
4:53 PM 23.0 °F 11.1 °F 15.1 °F 72% 30.09 in 10.0 mi NW 12.7 mph - N/A   Mostly Cloudy
5:53 PM 21.9 °F 11.0 °F 14.0 °F 72% 30.12 in 10.0 mi NW 10.4 mph - N/A   Scattered Clouds
6:09 PM 21.9 °F 12.5 °F 14.0 °F 72% 30.07 in 10.0 mi NW 8.1 mph - N/A   Mostly Cloudy
6:53 PM 21.0 °F 10.6 °F 14.0 °F 74% 30.14 in 10.0 mi NW 9.2 mph - N/A   Overcast
7:53 PM 19.9 °F 10.1 °F 14.0 °F 78% 30.16 in 10.0 mi NW 8.1 mph - N/A   Overcast
8:53 PM 18.0 °F 8.7 °F 12.9 °F 81% 30.19 in 10.0 mi WNW 6.9 mph - N/A   Mostly Cloudy
9:00 PM 17.1 °F 6.6 °F 12.9 °F 84% 30.13 in 10.0 mi WNW 8.1 mph - N/A   Scattered Clouds
9:53 PM 15.8 °F 7.2 °F 12.2 °F 86% 30.14 in 10.0 mi WNW 5.8 mph - N/A   Clear
10:53 PM 15.1 °F 7.7 °F 10.9 °F 84% 30.19 in 10.0 mi NW 4.6 mph - N/A   Clear
11:53 PM 15.1 °F 7.7 °F 10.9 °F 84% 30.18 in 10.0 mi WNW 4.6 mph - N/A   Clear